Home   Weather   Leutkirch im Allgäu   Past weeks

Flag for Germany Past Weather in Leutkirch im Allgäu, Baden-Württemberg, Germany — Yesterday and Last 2 Weeks

Now
37 °F

Partly sunny.


Feels Like: 29 °F
Forecast: 23 / 35 °F
Wind: 14 mph from Northeast

Location: Friedrichshafen Airport

Current Time: Dec 3, 2016 at 12:45:03 pm

Latest Report: Dec 3, 2016 at 11:50 am


Visibility: N/A

Pressure: 30.12 "Hg (27.77 "Hg at 656m altitude)

Humidity: 75%

Dew Point: 30 °F

Location of Leutkirch im AllgäuLocation

Past Weather in Leutkirch im Allgäu — Graph

°F

Leutkirch im Allgäu Temperature Yesterday

Maximum temperature yesterday: 41 °F (at 1:20 pm)
Minimum temperature yesterday: 21 °F (at 6:50 am)
Average temperature yesterday: 31 °F

High & Low Weather Summary for the Past Weeks

 TemperatureHumidityPressure
High68 °F (Nov 21, 12:20 pm)100% (Nov 18, 9:50 pm)30.57 "Hg (Nov 18, 9:50 pm)
Low19 °F (Nov 30, 5:20 am)30% (Nov 21, 12:20 pm)29.62 "Hg (Nov 21, 8:20 am)
Average41 °F82%30.05 "Hg
* Reported Nov 18 11:20 am — Dec 3 11:20 am, Leutkirch im Allgäu, Weather by CustomWeather, © 2016

Note: Actual official high and low records may vary slightly from our data, if they occured in-between our weather recording intervals... More about our weather records

Advertising

Leutkirch im Allgäu Weather History for the Previous 24 Hours

Scroll right to see more
 ConditionsComfort  
Time TempWeatherWind HumidityBarometerVisibility
11:20 am
Sat, Dec 3
37 °FPartly sunny.12 mph75%30.15 "HgN/A
10:50 am37 °FPartly sunny.12 mph75%30.15 "HgN/A
10:20 am36 °FPartly sunny.10 mph81%30.12 "HgN/A
9:50 am36 °FPartly sunny.12 mph81%30.12 "HgN/A
9:20 am36 °FPartly sunny.15 mph81%30.12 "HgN/A
8:50 am36 °FPartly sunny.10 mph81%30.12 "HgN/A
8:20 am36 °FOvercast.10 mph87%30.09 "HgN/A
7:50 am36 °FPassing clouds.10 mph87%30.09 "HgN/A
7:20 am37 °FPassing clouds.14 mph81%30.09 "HgN/A
7:04 am37 °FOvercast.9 mph81%30.09 "HgN/A
6:50 am37 °FOvercast.10 mph81%30.09 "HgN/A
6:20 am37 °FOvercast.7 mph87%30.09 "HgN/A
5:55 am37 °FOvercast.8 mph87%30.09 "HgN/A
5:50 am37 °FOvercast.8 mph87%30.09 "HgN/A
5:20 am37 °FOvercast.8 mph87%30.09 "HgN/A
4:50 am37 °FMostly cloudy.7 mph87%30.09 "HgN/A
4:20 am37 °FMostly cloudy.7 mph87%30.09 "HgN/A
3:50 am37 °FOvercast.6 mph87%30.09 "HgN/A
3:20 am34 °FOvercast.3 mph100%30.09 "Hg6 mi
2:50 am32 °FOvercast.2 mph100%30.09 "Hg6 mi
2:20 am32 °FOvercast.3 mph100%30.12 "Hg6 mi
1:50 am32 °FOvercast.2 mph93%30.12 "Hg5 mi
1:20 am32 °FOvercast.2 mph93%30.12 "Hg6 mi
12:50 am32 °FPassing clouds.3 mph93%30.12 "Hg4 mi
12:20 am32 °FPassing clouds.2 mph93%30.12 "Hg5 mi
11:50 pm
Fri, Dec 2
32 °FPassing clouds.3 mph100%30.12 "Hg4 mi
11:20 pm32 °FPassing clouds.2 mph93%30.12 "Hg3 mi
10:50 pm32 °FPassing clouds.3 mph93%30.12 "Hg4 mi
10:20 pm34 °FPassing clouds.3 mph93%30.12 "HgN/A
9:50 pm32 °FPassing clouds.5 mph93%30.15 "HgN/A
9:20 pm37 °FPassing clouds.5 mph87%30.15 "HgN/A
8:50 pm34 °FMostly cloudy.5 mph93%30.15 "HgN/A
8:20 pm34 °FOvercast.3 mph93%30.15 "HgN/A
7:50 pm36 °FPassing clouds.2 mph87%30.15 "HgN/A
7:20 pm37 °FMostly cloudy.5 mph81%30.15 "HgN/A
6:50 pm36 °FOvercast.3 mph87%30.15 "HgN/A
6:20 pm34 °FOvercast.2 mph93%30.15 "HgN/A
5:50 pm36 °FOvercast.2 mph87%30.15 "HgN/A
5:20 pm36 °FOvercast.No wind87%30.15 "HgN/A
4:50 pm36 °FPassing clouds.1 mph87%30.15 "HgN/A
4:20 pm39 °FSunny.1 mph75%30.15 "Hg10 mi
3:50 pm41 °FPassing clouds.2 mph76%30.15 "HgN/A
3:20 pm41 °FPassing clouds.2 mph76%30.15 "HgN/A
2:50 pm41 °FSunny.3 mph76%30.15 "Hg10 mi
2:20 pm41 °FSunny.3 mph76%30.15 "Hg10 mi
1:50 pm41 °FSunny.2 mph70%30.15 "Hg10 mi
1:20 pm41 °FSunny.2 mph70%30.18 "Hg10 mi
12:50 pm39 °FSunny.2 mph75%30.18 "Hg10 mi
12:20 pm37 °FPassing clouds.3 mph81%30.21 "HgN/A
Weather by CustomWeather, © 2016

See weather overviewHow to use our weather pages